Regional Weather Roundup
Issued by NWS Upton, NY

Current Version | Previous Version | Graphics & Text | Print | Product List | Glossary Off
Versions: 1 2 3 4 5 6 7 8 9 10 11 12 13 14 15 16 17 18 19 20 21 22 23 24 25 26 27 28 29 30 31 32 33 34 35 36 37 38 39 40 41 42 43 44 45 46 47 48 49 50

098
ASUS41 KOKX 260809
RWROKX

REGIONAL WEATHER ROUNDUP
NATIONAL WEATHER SERVICE NEW YORK NY
400 AM EDT WED JUL 26 2017

NOTE: "FAIR" INDICATES FEW OR NO CLOUDS BELOW 12,000 FEET WITH NO
SIGNIFICANT WEATHER AND/OR OBSTRUCTIONS TO VISIBILITY.

NYZ071-072-176-178-NJZ106-104-260900-
NEW YORK CITY METRO AREA

CITY           SKY/WX    TMP DP  RH WIND       PRES   REMARKS
Central Park   CLOUDY    66  57  72 NE6       30.24F
Bronx Bot Gard   N/A     63  54  72 NE2       30.22R
LaGuardia APRT CLOUDY    67  59  75 NE6       30.20F
Kennedy INTL   CLOUDY    65  60  84 NE7       30.21F
Breezy Point     N/A     64 N/A N/A NE3         N/A
Newark/Liberty CLOUDY    67  57  70 NE6       30.20F
Teterboro      CLOUDY    66  57  72 N3        30.20F
$$

NYZ177-179-078>081-260900-
LONG ISLAND NEW YORK

CITY           SKY/WX    TMP DP  RH WIND       PRES   REMARKS
Jones Beach      N/A     64 N/A N/A NE7         N/A
Matinecock PT    N/A     64 N/A N/A NE10        N/A
Farmingdale    CLEAR     61  58  90 NE5       30.21F
MacArthur/ISP  CLEAR     59  57  93 NE6       30.21F
Shirley        CLEAR     60  57  89 N3        30.21F
Mt Sinai Harb    N/A    N/A N/A N/A N8          N/A
Westhampton    CLEAR     52  49  89 CALM      30.23S
East Hampton   FAIR      55  54  97 CALM      30.21S
Montauk          N/A     63  59  87 N7        30.22S
$$

NYZ052-065-067-260900-
HUDSON VALLEY

CITY           SKY/WX    TMP DP  RH WIND       PRES   REMARKS
White Plains   CLEAR     61  56  83 NE5       30.21F
Larchmont Harb   N/A     63 N/A N/A N6          N/A
Croton O-T Hud   N/A     61 N/A N/A MISG        N/A
Newburgh       CLEAR     61  59  94 CALM      30.23F
Montgomery     PTCLDY    61  59  93 CALM      30.22F
Poughkeepsie   CLEAR     58  56  93 CALM      30.21F
Albany         PTCLDY    58  56  93 CALM      30.24S
$$

NJZ001-105-106-008-010-013-015-019>022-104-260900-
NEW JERSEY

CITY           SKY/WX    TMP DP  RH WIND       PRES   REMARKS
Newark/Liberty CLOUDY    67  57  70 NE6       30.20F
Teterboro      CLOUDY    66  57  72 N3        30.20F
Caldwell       CLOUDY    65  58  78 NE3       30.22F
Somerville     CLOUDY    65  62  90 CALM      30.19F
Linden         NOT AVBL
Perth Amboy      N/A     66 N/A N/A NE7         N/A
Sussex         CLOUDY    63  62  97 CALM      30.22F
Andover          N/A     63  59  87 VRB3      30.22F
Trenton        CLOUDY    66  63  90 NE5       30.20F
Millville      CLOUDY    68  65  90 NE7       30.18F
Atlantic City  CLOUDY    69  63  81 CALM      30.19S
Wrightstown    CLOUDY    65  63  92 NE5       30.17F
Toms River     CLOUDY    65  64  97 N3        30.20F
Belmar         CLOUDY    66  60  81 NE7       30.22S
$$

PAZ047>061-062-071-260900-
EASTERN PENNSYLVANIA

CITY           SKY/WX    TMP DP  RH WIND       PRES   REMARKS
Philadelphia   CLOUDY    67  62  84 NE5       30.20F
Allentown      LGT RAIN  65  62  90 CALM      30.21S FOG
Scranton       CLOUDY    63  59  87 CALM      30.23S
$$

CTZ002-004>006-009-010-012-RIZ004-006-007-MAZ004-011-015-260900-
SOUTHERN NEW ENGLAND
 IN CT

CITY           SKY/WX    TMP DP  RH WIND       PRES   REMARKS
Bradley INTL   PTCLDY    56  55  97 W3        30.23F
Hartford       CLEAR     56  56 100 CALM      30.23F
Danbury        CLEAR     55  55 100 CALM      30.24F
Wtrbury/Oxford CLEAR     54  48  82 CALM      30.24F
Bridgeport     CLEAR     61  57  87 N7        30.22F
Meriden        CLEAR     55  54  96 CALM      30.23F
New Haven      CLEAR     57  55  93 CALM      30.22F
Chester        NOT AVBL
Groton         CLEAR     57  55  93 N6        30.21S
Wilimantic     MOCLDY    55  53  93 CALM      30.23S

 IN RI

CITY           SKY/WX    TMP DP  RH WIND       PRES   REMARKS
Providence     CLEAR     56  55  97 CALM      30.22R
Block Island   CLEAR     60  57  89 N5        30.22R
Westerly       CLEAR     56  54  93 CALM      30.22S
 IN MA

CITY           SKY/WX    TMP DP  RH WIND       PRES   REMARKS
Boston         CLEAR     60  56  86 W6        30.20S
Worcester      CLEAR     57  53  86 NW9       30.23R
Westfield      FOG       53  53 100 CALM      30.23S VSB 1/2
Provincetown   CLEAR     57  55  93 NW7       30.20S
Nantucket      CLEAR     57  57 100 NE6       30.18S
$$

ANZ330-335-338-340-345-350-353-355-260900-
COASTAL MARINE OBSERVATIONS


STATION/POSITION TIME  SKY/WX   TEMP    WIND        PRES    VSBY  WAVE
                                AIR SEA DIR/SP/G                  HT/PER
                 (UTC)          (F)     (DEG/KT/KT) (MB)    (MI)  (FT/S)
NY HARB ENTRANCE 0650            67 71   30/  8/ 12 1022.8          3/ 8
20 S FIRE ISLAND 0750            67 73   50/ 10/ 14 1022.3          3/ 5
GREAT SOUTH BAY  0715            65 75   30/  8/ 12   N/A
23 SSW MONTAUK P 0650            65 72              1023.1          3/ 5
15 E BARNEGAT LI 0730               71                N/A           3/ 5
HUDSON CANYON    0650            68 73   20/ 12/ 14 1021.5          3/ 6
KINGS POINT      0730            66 71   70/  3/  4 1022.9
EXECUTION ROCKS  0745            67      50/  8/ 12   N/A
CENTRAL LI SOUND 0715            65     360/ 10/ 12   N/A           1
EASTERN LI SOUND NOT AVBL
ROBBINS REEF     0736                    70/ 10/ 12 1023.6
$$


>>>>>>>>>>>>>>>>>>>>>>>>>>>> KEY <<<<<<<<<<<<<<<<<<<<<<<<<<<
>                                                          <
>     SKY/WX - Sky Condition/Present Weather               <
>     TMP    - Temperature in Fahrenheit                   <
>     DP     - Dew Point in Fahrenheit                     <
>     RH     - Relative Humidity in Percent                <
>     WIND   - Direction (from) and Speed in MPH           <
>     PRES   - Mean Sea Level Pressure (inches of Hg)      <
>     WCI    - Wind Chill Index                            <
>     VSB    - VISIBILITY IN MILES                         <
>     HX     - HEAT INDEX                                  <
>     TC     - TEMPERATURE IN CELSIUS                      <
>     VRB    - VARIABLE WIND DIRECTION                     <
>                                                          <
>>>>>>>>>>>>>>>>>>>>>>>>>>>> KEY <<<<<<<<<<<<<<<<<<<<<<<<<<<




USA.gov is the U.S. government's official web portal to all federal, state and local government web resources and services.